RH
1 1 1 3 1 2 1 1 12 10 7 9 5 9 12 17 18 20 26 26 43 53 43 36 36 47 58 59 54 51 53 59 51 46 54 40 22 20 27 38 49 68 74 74 84 91 87 78 88 92 86 84 77 70 65 57 59 61 49 40 54 78 75 65 66 57 45 24 14 20 19 19 19 19 17 19 21 37 50 32 28 37 49 59 55 49 37 26 21 8 2 2 0 2 1 1 2
1 1 0 2 0 3 5 1 14 14 6 8 5 9 14 17 19 22 28 32 37 39 35 26 23 29 44 52 40 36 39 38 31 30 35 19 12 14 20 37 51 66 72 70 75 85 83 70 79 90 83 72 66 72 71 61 56 55 57 42 36 71 80 69 73 57 32 14 11 14 12 18 21 21 17 11 24 45 44 36 39 36 40 50 47 40 36 28 18 8 4 3 1 2 1 1 1
1 1 1 2 2 2 6 4 10 12 6 6 5 11 15 17 20 25 27 32 33 27 23 18 18 19 31 50 39 27 24 20 16 17 20 12 11 13 15 39 60 68 69 65 71 86 80 71 77 82 76 59 53 66 72 67 56 47 55 52 35 46 61 63 70 66 41 17 13 10 9 16 16 23 27 17 23 31 22 20 21 18 22 33 42 39 29 19 8 5 5 2 0 1 1 1 1
1 1 1 2 3 3 10 11 10 10 6 4 6 12 15 17 20 24 25 29 30 23 18 15 16 17 22 37 37 28 19 14 13 14 17 15 13 12 21 48 63 62 65 61 70 88 77 72 76 79 77 60 56 64 67 66 57 46 46 53 47 40 52 60 58 65 58 33 18 11 11 11 7 17 24 20 21 15 6 7 5 7 10 16 25 25 19 10 4 6 5 2 1 1 1 0 1
2 3 2 2 8 13 18 17 13 11 7 5 7 12 15 18 19 21 26 27 24 18 15 17 19 17 17 25 30 27 17 13 14 14 17 18 15 15 30 56 65 62 66 57 57 74 71 67 66 74 77 64 63 65 65 65 58 48 43 51 57 54 58 58 45 46 56 49 30 16 13 8 6 16 17 13 15 10 3 3 2 4 5 6 8 9 10 6 5 6 5 3 1 0 0 0 0
3 3 3 2 10 14 17 15 11 9 8 9 10 12 13 18 21 19 25 23 20 18 13 16 19 14 14 18 19 18 13 13 15 14 17 19 19 23 38 59 68 67 63 49 46 57 65 65 59 62 63 60 66 66 63 64 60 52 52 62 68 67 59 48 41 40 48 51 38 24 16 11 13 19 13 11 14 7 2 2 1 2 1 2 2 4 6 5 6 4 4 2 0 1 0 0 0
3 7 6 3 7 8 14 13 7 8 10 13 13 14 13 19 22 18 22 22 19 17 13 12 13 18 18 13 14 14 11 13 14 16 17 20 26 29 42 60 66 62 52 42 41 46 54 59 55 59 59 56 70 77 67 63 63 57 60 74 80 81 75 60 49 46 48 45 37 29 21 14 14 13 5 8 16 6 1 3 1 2 2 1 0 3 5 3 4 2 3 1 0 1 0 0 0
4 12 11 12 18 11 15 14 6 10 14 11 10 13 15 20 20 19 21 21 21 15 14 11 10 24 21 9 12 10 9 11 12 17 19 22 27 25 39 61 64 54 42 40 43 40 42 49 51 63 74 67 69 81 73 68 67 56 54 63 69 72 78 78 66 56 51 47 43 35 24 17 13 9 5 5 12 7 2 3 3 3 2 1 0 2 4 2 2 1 1 1 0 0 0 0 0
5 11 10 16 25 16 14 15 9 13 17 11 10 12 15 20 20 22 23 19 20 14 13 11 11 23 16 5 9 8 8 10 11 17 20 23 25 22 39 60 62 53 40 41 45 40 41 50 53 56 77 80 69 74 68 65 67 56 49 48 54 63 71 79 76 64 54 49 50 44 29 21 15 10 9 6 7 7 5 5 4 4 4 2 1 2 3 2 2 1 1 0 0 0 0 0 0
7 12 17 19 22 17 12 13 10 14 17 12 12 15 16 19 20 24 26 21 19 14 12 11 12 17 12 7 7 7 7 7 10 14 16 18 18 18 30 39 41 42 38 43 47 45 46 51 60 65 79 87 75 72 64 61 63 53 51 48 50 66 71 72 73 68 58 48 47 50 38 23 16 12 10 8 6 5 6 7 7 6 5 4 2 2 3 2 2 0 1 0 0 1 0 0 1
17 15 18 21 18 15 11 10 11 14 16 13 13 17 18 19 20 22 24 21 17 14 12 12 12 11 9 7 7 7 6 5 7 9 10 10 12 13 17 17 16 20 23 37 47 47 49 50 65 80 84 89 83 77 66 60 62 55 54 55 50 59 67 67 70 67 59 51 44 48 49 31 18 17 13 10 7 4 5 8 11 10 6 5 3 2 3 2 1 0 0 0 0 1 0 0 1
26 21 14 17 15 12 12 11 12 14 15 16 15 16 18 19 19 19 20 19 16 14 12 14 13 12 14 11 10 10 8 7 6 6 8 7 9 10 10 10 9 9 10 27 44 43 45 49 64 81 83 86 88 84 74 66 72 68 59 59 55 55 64 65 66 65 60 58 48 44 49 36 22 26 23 17 14 9 7 8 13 14 7 6 4 2 3 3 1 1 0 0 0 0 0 0 1
23 24 16 15 15 14 13 12 13 15 14 16 17 15 17 17 18 20 22 20 16 15 13 14 12 14 19 14 13 14 12 10 8 7 6 7 7 7 7 7 7 6 9 22 37 42 49 59 69 82 85 85 88 86 81 77 78 71 55 55 57 58 66 63 59 61 58 57 50 42 40 32 25 32 33 31 32 32 30 22 18 17 11 6 4 4 3 3 2 0 1 0 0 0 0 0 0
20 24 17 15 16 15 13 12 14 13 13 16 15 15 17 17 19 21 23 20 17 16 14 14 12 15 17 16 16 13 14 13 10 9 6 6 6 6 6 5 6 4 9 16 23 36 50 62 70 78 83 81 83 86 84 78 69 60 52 53 54 62 69 59 54 56 53 51 47 40 33 30 29 34 40 37 39 58 68 57 38 23 13 6 4 4 3 3 2 1 1 1 0 0 0 1 1
20 23 16 16 16 13 12 12 14 11 13 16 13 16 18 16 18 19 21 20 18 15 14 14 14 19 20 23 24 13 14 14 12 12 8 7 5 6 6 4 6 4 5 8 14 31 40 47 54 62 71 73 73 77 77 72 64 57 55 55 53 62 67 57 54 55 53 48 41 37 31 33 38 44 50 36 38 68 82 81 71 42 15 7 4 3 3 2 2 1 0 1 0 0 0 0 1
17 20 17 17 15 12 12 13 14 11 14 16 13 17 18 17 17 17 19 19 18 16 16 15 15 19 18 20 21 13 14 15 13 14 10 9 6 5 6 4 5 4 5 4 9 20 24 30 40 46 56 58 54 54 57 61 64 61 59 58 56 60 66 64 58 52 48 42 41 36 29 38 48 63 67 49 57 80 81 87 97 77 37 15 7 1 2 2 2 2 0 1 1 0 0 0 0
13 17 18 16 14 12 13 14 14 12 15 16 15 18 18 17 18 18 18 18 18 16 16 16 16 17 16 16 16 15 16 16 15 15 12 10 7 5 5 5 5 4 5 6 7 9 11 19 27 35 41 37 34 36 44 58 67 70 66 59 59 64 71 74 67 63 49 40 55 47 41 57 59 74 82 66 73 85 87 94 102 98 69 39 22 7 2 2 2 2 1 1 1 0 0 0 0
14 18 18 15 13 13 15 16 16 15 17 16 16 19 19 18 18 18 18 18 17 17 17 17 17 17 18 18 18 18 17 17 17 15 14 11 8 7 6 6 6 5 6 6 7 7 7 10 14 22 29 28 31 38 46 61 72 76 70 58 61 68 73 76 75 81 66 52 69 62 64 82 69 73 84 80 87 91 97 102 100 100 86 63 42 18 4 3 1 1 2 1 1 1 0 0 0
17 21 18 15 15 16 18 18 17 18 18 17 17 18 19 19 18 18 19 19 17 18 19 18 17 18 19 19 19 19 18 18 17 15 14 11 8 7 7 7 6 6 6 6 6 7 7 7 8 10 16 21 30 39 48 63 69 70 67 59 62 65 66 72 74 85 85 72 74 66 69 77 67 78 86 84 94 96 96 99 100 96 86 73 53 31 11 3 1 0 1 1 1 1 0 0 -1
18 21 17 15 17 18 17 17 18 18 19 19 18 18 19 19 18 17 20 21 19 21 22 20 19 19 19 20 20 19 19 18 17 15 12 9 8 7 7 8 8 7 7 6 6 7 8 8 7 6 7 11 18 27 45 66 66 63 66 60 59 61 57 65 71 82 92 86 79 73 73 68 62 78 82 83 95 94 91 96 98 90 84 77 60 44 25 7 0 0 0 0 1 1 0 1 0
19 18 16 18 18 18 17 17 19 19 20 21 19 19 19 19 19 19 21 22 20 22 24 23 21 20 20 20 20 19 19 19 16 13 10 8 8 7 8 9 9 9 8 7 7 7 8 8 8 6 4 5 9 13 30 57 63 61 69 68 64 62 56 59 65 77 88 87 88 87 86 74 62 67 63 67 84 85 84 91 90 79 75 72 57 44 34 18 4 -1 0 0 0 1 1 0 0
20 18 19 21 19 19 19 17 19 19 20 21 21 22 22 21 21 21 22 22 20 21 23 22 22 21 20 20 20 19 18 16 12 9 8 8 8 9 10 10 10 10 10 9 8 8 9 8 8 7 5 4 5 6 14 36 51 54 65 74 70 65 60 59 61 72 82 86 93 97 93 77 62 62 52 43 51 65 84 89 78 70 68 68 59 49 40 26 13 3 -1 0 0 0 2 1 1
19 20 20 20 20 21 20 17 18 19 21 23 23 23 23 23 23 23 23 22 21 21 22 21 22 21 20 20 18 17 14 11 9 8 8 9 10 11 11 11 12 11 11 10 9 9 9 9 8 7 5 3 4 4 6 18 35 48 65 73 68 64 62 60 61 66 75 82 88 95 95 79 64 56 46 35 28 41 74 84 74 70 66 64 63 62 51 32 23 15 2 0 0 0 1 1 2
19 21 20 20 21 20 18 18 18 19 21 23 24 23 24 24 24 23 23 23 22 22 22 21 21 19 18 16 13 11 9 9 8 9 10 11 12 12 13 12 12 12 11 11 10 9 9 9 8 7 6 4 3 3 3 7 18 41 70 78 69 67 63 58 61 62 68 76 76 83 89 82 72 60 47 41 31 31 54 70 74 76 69 61 60 64 63 52 41 29 12 3 0 0 1 1 2
19 22 22 20 20 18 17 17 17 18 20 21 22 23 24 24 24 22 22 22 21 20 19 17 15 14 12 10 10 9 9 9 9 11 12 12 13 13 14 14 13 13 12 12 10 9 8 8 7 6 5 4 2 1 2 3 6 23 57 80 80 79 73 62 60 62 68 75 68 70 82 81 77 73 61 51 49 50 47 52 65 78 78 63 58 61 62 64 54 36 23 11 3 0 0 1 2
20 23 23 20 19 18 17 17 17 18 18 18 19 20 20 21 20 18 18 18 17 16 13 12 11 10 10 10 10 10 10 10 10 11 12 13 15 16 16 16 16 14 14 14 12 10 9 9 8 7 5 3 2 0 0 2 3 7 31 65 82 80 74 68 68 68 72 76 67 62 75 80 76 78 73 61 70 73 50 46 62 75 78 64 64 67 58 58 50 38 33 23 11 3 0 1 1
22 23 22 20 19 18 18 18 17 17 17 17 18 17 16 16 15 16 17 14 13 12 11 11 11 11 12 12 11 11 10 10 11 13 15 17 19 20 22 21 19 17 15 14 13 12 10 9 9 8 6 3 1 1 -1 0 2 3 10 38 67 74 68 68 76 78 77 78 72 64 67 72 72 74 73 63 72 78 55 51 65 71 72 66 71 74 65 60 45 31 33 33 24 10 2 2 1
21 22 21 20 18 18 18 18 17 17 18 16 16 17 15 13 14 19 18 13 13 13 13 13 13 14 14 14 14 13 13 13 15 17 19 20 21 24 28 28 23 20 17 15 14 13 11 10 9 9 7 4 1 0 0 -1 0 3 4 14 42 67 74 73 74 78 79 80 81 76 69 65 63 64 68 67 69 74 67 64 66 69 73 71 73 74 69 68 59 43 32 31 32 24 11 3 1
19 20 21 20 19 19 19 18 17 18 19 16 16 17 17 16 17 20 17 15 16 15 15 15 15 16 15 16 17 17 18 19 20 21 21 21 22 25 30 33 27 22 19 16 15 14 13 12 10 9 8 6 3 1 0 0 -1 1 5 7 18 43 70 81 78 78 80 80 83 81 72 65 61 55 57 66 69 66 69 75 73 73 77 77 80 80 70 66 72 66 45 29 26 27 24 12 3
19 19 20 20 20 20 19 18 16 17 18 15 16 19 19 20 21 19 17 17 18 17 17 17 16 17 17 18 19 21 21 22 22 21 22 22 24 28 32 34 29 24 22 19 16 15 14 13 12 10 9 7 5 3 1 0 0 -1 2 5 8 17 41 66 76 83 86 83 84 82 75 71 69 65 57 57 65 63 64 75 79 80 83 83 86 87 76 69 74 74 66 54 36 24 23 20 11
19 20 18 18 17 18 19 18 16 18 18 16 18 19 19 22 23 19 19 20 19 20 21 20 20 18 18 19 19 22 22 23 24 23 23 24 27 29 31 33 30 27 24 22 19 17 15 14 12 11 9 8 7 5 3 1 1 0 0 1 4 7 15 33 53 69 78 81 87 88 84 80 77 80 73 60 61 64 65 71 76 80 85 89 90 90 83 75 73 73 72 69 56 38 25 19 17
22 20 19 20 17 19 23 20 18 20 20 18 20 20 19 23 25 21 21 22 20 25 28 26 24 20 19 20 19 22 25 25 25 25 25 26 30 31 31 33 33 30 26 24 21 19 17 13 12 11 9 9 8 7 5 3 2 1 1 0 1 4 5 11 23 38 53 65 77 84 88 89 84 84 82 70 65 65 66 70 74 77 83 92 96 96 91 83 77 74 70 68 65 57 41 23 17
24 21 20 24 20 20 26 25 21 22 22 20 21 22 22 23 26 24 23 22 22 29 34 32 29 24 21 21 20 22 26 27 26 27 26 27 31 32 32 35 35 32 28 25 22 19 18 15 13 11 9 9 8 8 6 5 4 2 2 2 1 2 3 4 7 14 26 38 49 62 76 82 82 85 85 79 77 75 74 74 76 80 83 89 98 101 99 96 89 78 71 69 67 63 55 37 20
25 22 22 28 26 22 26 29 26 23 24 23 23 24 24 25 27 26 23 23 25 30 36 37 35 31 26 24 23 23 24 25 26 27 28 29 33 34 34 37 38 35 30 26 24 21 19 18 16 13 11 11 10 9 8 7 6 5 4 3 3 2 2 3 3 5 8 15 22 32 49 59 65 77 84 86 87 86 87 83 78 81 83 84 93 101 101 101 96 85 77 70 65 67 66 53 30
26 25 25 27 28 25 26 31 33 29 26 26 26 26 26 26 29 28 25 24 26 29 33 37 39 38 34 29 27 26 25 23 22 25 30 33 35 36 36 38 39 36 31 28 27 25 23 20 19 17 14 13 12 11 10 9 8 7 7 5 5 4 3 3 3 3 3 4 8 12 22 33 44 58 72 84 93 93 91 87 81 80 82 83 91 100 101 99 95 90 87 75 66 75 82 72 49
29 29 28 26 26 24 26 33 34 31 31 28 26 27 26 25 28 30 28 26 26 27 30 33 35 36 34 30 28 28 24 20 21 26 32 35 37 37 37 40 40 36 32 30 28 27 26 24 22 20 18 15 14 13 12 11 11 10 9 7 7 6 5 4 3 3 3 2 3 4 7 13 23 38 54 68 84 95 95 91 87 81 79 82 89 97 97 94 91 89 89 84 71 73 86 87 71
34 33 29 28 27 22 27 35 30 28 32 32 30 30 28 28 29 30 32 34 32 28 29 30 29 32 32 32 33 28 20 20 25 31 34 36 39 38 38 40 39 35 32 30 28 28 27 26 24 22 21 19 17 15 14 12 12 12 11 10 9 8 6 6 5 3 3 2 2 2 2 4 8 19 37 52 63 78 92 96 92 85 80 79 81 89 92 86 86 87 85 87 81 73 81 90 83
36 33 30 28 26 25 31 32 23 22 27 30 37 37 33 32 32 33 37 42 39 32 33 36 36 39 36 31 28 24 25 27 28 32 34 37 38 37 38 39 37 35 33 30 28 28 28 27 26 24 23 22 20 19 17 14 14 14 14 13 11 10 8 7 6 5 3 3 2 1 0 1 3 6 19 37 49 59 73 89 96 93 88 83 79 82 88 84 80 82 80 83 88 81 80 88 84
37 32 30 25 25 28 31 29 22 23 28 31 40 42 36 35 36 38 40 42 43 40 39 41 41 41 35 26 20 21 29 32 28 29 32 33 35 35 37 37 35 35 32 30 29 28 28 27 26 26 26 25 23 20 18 16 16 15 14 14 14 12 10 8 7 6 5 4 3 2 1 0 1 2 6 18 36 50 61 74 87 93 94 90 84 81 84 80 75 82 86 85 87 82 82 88 84
37 33 27 25 29 27 29 38 36 29 29 32 39 41 35 33 34 36 37 38 40 39 34 30 28 27 27 26 24 24 29 31 29 29 31 31 33 34 35 35 35 34 31 30 30 30 29 29 29 30 30 29 26 23 20 17 16 15 14 14 14 14 12 10 8 6 5 4 4 3 2 1 0 1 2 5 17 32 47 58 66 76 89 93 88 86 86 79 76 87 93 89 84 79 80 84 83
38 36 26 24 32 30 29 42 43 32 31 33 35 34 28 29 30 30 35 32 26 25 23 22 24 24 24 27 28 28 30 31 31 31 32 33 34 34 34 35 34 32 31 32 32 31 31 32 34 34 34 32 29 27 23 20 18 15 14 13 13 14 13 11 9 7 5 4 4 3 2 2 2 1 1 2 5 12 22 33 39 47 67 87 91 90 90 83 81 85 83 82 83 81 81 85 87
34 37 31 29 34 36 35 39 39 33 38 44 39 28 21 27 29 29 37 35 26 26 27 28 33 36 32 29 29 30 31 32 32 33 33 33 34 35 35 35 32 31 34 35 34 34 34 35 36 36 35 32 31 29 25 24 23 21 19 17 16 15 14 12 10 8 7 5 4 4 3 2 2 2 1 1 2 4 7 12 18 23 40 70 88 91 91 87 81 78 74 77 84 83 80 86 92
30 36 35 34 35 38 40 41 38 31 36 44 38 26 23 25 24 26 34 38 38 38 37 37 41 44 41 36 34 33 32 33 34 34 33 33 34 35 35 33 31 32 36 37 38 37 37 37 38 39 37 34 33 31 28 25 25 25 24 22 21 19 16 14 12 9 7 6 5 4 4 3 2 2 2 2 1 2 4 5 8 11 19 38 60 75 84 86 84 82 78 80 86 84 77 80 92
34 40 36 34 37 39 42 42 38 35 37 39 38 35 29 23 24 28 31 33 38 40 40 41 42 45 45 43 42 39 36 35 35 35 32 33 34 33 35 35 31 33 37 39 41 41 40 40 41 42 39 38 37 34 31 28 27 26 25 23 22 21 20 17 14 12 9 6 6 5 5 4 3 3 2 2 2 2 2 3 3 6 8 13 23 36 49 61 69 76 80 82 85 83 78 78 87
39 40 34 35 39 43 45 42 37 41 41 34 39 44 29 19 26 31 30 28 31 34 38 41 41 43 45 44 45 44 41 37 35 36 33 32 34 33 36 38 33 34 38 41 43 44 44 44 43 43 42 40 39 38 36 32 29 28 25 24 22 20 21 19 17 14 11 8 6 6 6 5 4 4 4 3 3 3 2 3 3 3 4 5 7 11 18 26 34 46 60 69 71 71 75 81 83
39 37 34 37 41 43 45 41 35 43 43 30 36 43 26 16 22 27 28 27 26 27 31 37 41 42 43 44 45 46 45 41 35 35 34 33 35 36 37 37 35 36 40 43 45 46 46 45 44 44 43 41 40 40 39 36 33 31 28 25 23 22 22 22 21 16 13 10 7 6 6 6 6 5 5 4 4 4 3 3 3 3 3 4 5 6 8 11 15 20 29 38 45 49 57 73 84
38 40 40 41 43 44 44 41 38 39 37 29 34 41 31 19 17 21 27 29 27 26 29 35 39 40 41 43 45 45 46 45 40 37 35 36 38 37 35 35 37 40 43 45 48 48 47 46 45 44 43 42 41 40 40 37 35 33 31 28 25 25 25 25 25 22 16 11 8 7 6 5 7 6 6 6 5 5 4 4 4 4 4 4 4 5 5 7 9 12 15 21 27 31 36 51 73
38 43 42 39 39 43 41 39 43 38 30 32 36 39 37 26 19 21 27 31 29 28 30 34 36 37 37 40 42 44 44 46 47 44 37 36 38 36 35 37 40 42 45 48 50 50 49 48 47 47 45 44 42 41 40 38 35 33 31 29 27 28 28 28 28 26 22 15 9 7 6 6 6 6 7 7 7 7 6 5 5 4 5 5 5 5 5 5 5 7 11 15 18 21 25 32 47
38 43 40 35 29 31 32 31 38 33 28 39 42 38 39 31 23 23 27 31 31 29 30 31 33 34 34 36 39 40 42 44 49 50 43 36 37 37 36 38 41 43 45 48 50 50 50 49 48 47 46 45 43 42 41 39 36 34 31 30 29 29 30 30 29 28 25 21 15 8 6 6 6 7 6 7 9 9 9 7 6 5 5 6 6 6 6 5 5 6 6 10 13 15 20 26 29
39 38 37 34 25 24 29 26 26 23 28 46 49 42 39 31 25 27 27 29 31 30 32 30 28 28 28 32 38 40 42 43 46 50 48 40 37 38 39 41 42 44 46 48 50 50 50 49 47 46 45 44 43 42 41 40 36 34 31 30 31 31 31 32 31 30 28 25 22 15 9 5 5 7 6 7 8 10 12 12 10 9 7 6 7 7 7 6 6 6 5 8 10 10 14 21 27
38 33 32 32 27 25 26 23 19 18 30 50 54 43 33 27 27 28 25 27 29 30 33 28 21 19 19 23 30 34 36 39 41 45 47 42 38 39 42 44 43 44 47 49 51 49 47 46 43 43 42 41 42 40 39 39 36 33 31 31 33 32 32 32 31 30 29 27 25 23 18 10 5 5 6 7 7 8 11 13 13 13 11 9 7 6 7 7 7 7 7 8 8 9 9 11 24
36 35 31 31 30 27 26 25 26 24 28 42 49 41 29 25 30 29 24 24 25 27 28 24 18 18 18 18 19 23 28 35 40 42 42 40 38 39 42 45 44 44 48 49 48 45 42 41 39 38 39 38 38 38 38 38 37 34 33 33 34 33 32 33 33 31 29 28 27 26 24 19 12 7 5 5 6 7 8 10 13 14 14 14 11 9 8 7 8 7 7 8 7 8 8 7 19
38 40 33 29 32 32 31 32 35 35 31 32 36 38 33 29 30 30 28 26 24 24 24 24 23 22 21 17 16 20 28 36 40 42 42 41 42 42 42 44 44 45 48 46 43 41 39 38 36 35 36 37 38 39 40 40 40 38 37 37 36 34 34 34 34 33 31 29 28 26 25 24 20 14 8 5 4 5 6 7 10 12 14 15 14 13 11 10 10 8 7 8 8 7 8 8 10
38 39 33 32 35 37 36 35 36 37 35 30 30 35 36 29 26 28 31 31 28 27 27 29 29 28 25 20 18 24 33 38 40 43 43 44 47 49 47 45 44 45 45 42 40 39 39 38 37 36 37 39 41 43 44 44 43 42 41 40 38 36 35 35 34 34 33 31 29 27 25 23 22 19 15 10 6 5 4 5 7 9 13 15 16 17 16 14 14 12 10 8 9 9 7 8 8
35 33 34 37 36 35 34 37 38 36 34 33 31 34 35 27 21 23 27 31 32 30 31 32 32 32 31 29 28 33 38 39 40 42 44 46 49 52 53 49 46 46 43 39 38 39 41 41 39 38 39 42 45 47 48 47 46 44 43 41 39 38 36 35 35 35 34 32 29 27 25 21 19 17 16 14 10 7 5 4 5 6 10 13 15 18 18 19 17 15 15 12 12 14 12 10 9
38 37 37 37 37 36 34 34 35 32 31 32 29 29 29 26 23 21 21 25 30 31 33 33 33 33 35 36 36 38 39 40 41 43 45 48 50 53 56 53 48 46 43 40 40 43 46 45 42 40 41 46 50 51 52 50 48 46 45 43 41 39 37 36 36 36 34 32 30 27 24 20 17 15 13 12 11 10 8 6 5 4 7 11 14 16 17 20 20 16 16 16 15 16 18 19 14
41 43 41 38 38 38 36 34 33 31 31 30 29 26 21 21 23 24 23 25 28 30 34 36 35 34 36 37 38 39 40 42 44 45 46 47 48 51 56 52 45 43 41 41 43 46 50 48 44 42 44 50 54 55 55 52 50 49 46 45 43 40 39 39 38 36 34 31 29 27 23 19 16 12 10 8 7 8 8 8 8 5 5 7 11 15 16 17 20 19 18 20 20 19 21 25 26
42 42 42 39 39 39 40 40 36 32 30 28 30 28 20 21 26 27 25 26 27 29 33 36 36 36 36 37 39 41 42 43 44 46 47 46 46 50 53 48 43 44 44 44 45 48 51 51 46 44 47 54 58 58 57 55 53 51 49 46 44 42 41 40 39 37 34 32 29 26 23 18 12 8 6 4 3 4 6 6 8 8 7 6 7 12 16 16 16 19 21 22 24 25 26 28 33
Wind_Speed
17 16 16 16 14 11 9 6 5 7 8 8 8 5 7 10 8 8 9 9 7 9 14 12 14 15 12 11 11 12 11 9 10 8 7 8 7 7 7 8 9 7 7 8 7 5 4 5 4 4 6 7 8 7 5 3 2 2 4 7 6 7 6 2 2 2 1 4 5 3 2 3 5 7 7 7 5 5 5 4 6 7 8 8 8 6 10 15 16 18 18 17 18 26 32 29 28
16 16 16 15 13 10 8 8 5 7 9 9 9 6 6 9 8 9 10 10 10 10 10 9 10 12 12 12 10 8 9 9 8 8 8 8 8 7 8 9 8 7 6 7 7 5 3 6 8 5 6 7 9 10 8 4 2 2 2 5 5 7 8 6 4 4 1 2 5 4 3 1 2 5 6 7 6 6 6 6 7 6 7 8 9 8 11 15 15 16 16 16 18 26 31 29 28
14 15 15 13 12 10 7 9 8 7 11 11 9 9 8 9 8 11 14 14 13 10 8 8 9 10 11 10 8 6 6 7 6 8 9 8 8 7 8 9 7 6 6 7 7 6 5 8 11 8 7 8 9 11 10 6 3 2 2 3 4 6 7 8 7 6 3 3 5 4 4 1 1 2 4 6 7 7 6 6 6 5 5 6 8 10 13 15 13 13 14 16 18 26 31 29 28
14 13 14 12 10 9 7 9 9 9 11 10 7 10 10 9 10 13 16 15 12 11 9 8 8 8 8 7 8 6 6 6 6 8 9 10 9 9 9 7 6 6 7 8 7 6 6 8 10 8 6 7 8 10 9 7 5 2 1 2 3 5 7 7 8 8 6 2 5 4 4 1 2 1 3 6 8 7 5 5 5 4 4 5 8 11 14 14 13 12 13 15 19 27 31 30 28
13 13 13 12 9 9 9 9 10 10 10 7 5 10 12 9 11 14 14 15 13 12 10 8 6 5 6 6 7 7 7 7 6 7 9 10 10 10 9 6 6 7 8 8 8 8 7 8 9 8 8 8 7 8 7 5 5 2 1 1 3 5 7 6 5 5 5 0 3 4 4 2 3 2 2 4 6 6 5 4 4 4 5 6 8 11 13 12 12 12 13 15 20 28 31 29 28
13 12 13 12 11 12 10 9 11 12 9 4 3 8 12 11 12 13 14 15 13 12 10 8 5 4 5 6 7 7 6 6 7 6 8 10 10 10 9 7 6 7 8 8 8 7 7 8 9 10 10 9 7 6 4 3 3 2 3 2 2 3 4 2 0 0 1 1 1 5 4 3 3 2 2 2 4 5 4 3 3 4 5 6 9 12 14 12 12 12 13 15 20 29 31 29 28
12 10 11 10 10 12 10 10 11 11 10 9 5 7 11 13 14 13 14 13 12 12 8 6 5 5 5 5 6 6 6 5 5 6 8 10 11 10 7 7 8 7 8 8 8 8 7 8 10 12 12 10 7 5 3 2 2 3 5 4 3 1 1 1 2 3 2 1 2 4 4 3 3 2 4 4 2 2 2 3 3 4 5 7 10 13 14 13 13 12 13 15 21 30 32 29 28
12 10 10 9 8 10 10 11 10 8 9 13 11 10 12 15 15 14 13 11 11 10 7 6 6 5 5 5 6 5 5 5 5 6 8 9 11 9 6 7 8 7 7 8 9 10 10 9 11 12 11 11 9 6 5 2 2 3 4 4 4 4 2 1 2 4 4 3 3 1 3 3 2 2 4 5 4 3 0 2 3 4 6 8 10 13 15 14 13 12 13 16 23 30 32 29 27
10 10 10 9 8 10 11 11 10 8 7 12 14 12 15 16 16 15 12 12 11 9 7 7 7 6 5 4 5 4 4 5 5 7 8 10 11 10 8 7 8 7 7 8 9 11 11 10 12 11 11 10 9 11 8 4 3 2 5 5 5 5 4 3 3 4 6 4 5 4 2 3 2 3 5 5 6 6 4 2 3 5 6 8 11 13 14 14 13 13 13 17 24 30 31 29 28
9 9 9 8 9 10 12 11 10 9 9 12 14 13 17 18 17 15 11 11 11 8 7 6 7 6 4 3 3 3 4 4 5 6 8 10 11 11 10 9 9 8 7 7 8 10 11 10 12 12 11 8 8 11 9 7 5 3 5 5 4 5 5 5 4 4 6 5 4 6 5 3 2 2 5 6 7 7 5 3 2 5 7 9 11 13 14 14 13 13 14 17 24 30 30 29 28
8 10 11 9 10 11 12 11 10 9 11 13 14 15 17 18 17 16 13 11 11 9 7 6 6 6 5 4 3 2 2 2 3 5 7 9 10 10 11 10 10 10 9 9 8 9 10 11 11 10 9 11 11 10 7 8 6 3 4 5 4 4 5 5 5 5 6 6 5 6 8 6 4 3 5 7 7 7 6 4 3 5 8 10 11 13 14 14 14 14 14 18 24 29 30 29 29
9 10 11 10 11 11 10 10 9 9 11 11 13 15 16 17 16 15 13 11 10 8 7 7 6 7 6 4 3 2 1 1 1 4 6 6 8 9 10 10 11 11 11 11 9 10 10 12 12 7 4 6 8 7 5 7 5 3 5 6 5 5 5 5 5 6 6 6 5 5 8 7 5 4 4 5 5 5 6 5 4 6 9 11 11 12 14 14 14 15 16 19 24 29 30 29 29
11 10 11 11 10 10 8 9 9 9 10 11 15 16 15 16 14 12 11 10 9 8 7 7 7 7 7 4 3 1 2 1 1 3 5 6 7 8 9 10 11 11 12 13 13 12 10 11 13 9 5 3 4 3 3 4 4 6 7 8 8 6 4 5 5 5 6 6 5 4 5 7 3 4 5 5 4 3 3 3 3 6 9 11 11 12 13 14 14 15 17 20 25 29 30 28 28
11 10 12 11 9 9 9 9 9 10 11 13 18 16 15 16 15 13 10 9 9 8 7 6 5 6 5 3 2 1 1 2 3 4 6 6 8 8 9 10 11 11 12 14 15 15 13 13 14 13 11 8 6 5 3 4 7 9 8 8 9 8 5 4 4 4 5 4 4 3 4 5 2 5 5 4 4 4 1 1 1 5 9 11 11 12 12 13 14 16 18 21 25 29 29 27 27
12 12 12 10 9 11 12 9 9 11 11 15 18 15 16 17 17 16 12 10 11 10 7 6 5 5 6 5 4 4 3 3 4 6 7 7 8 9 10 10 11 12 12 15 17 16 16 16 16 16 14 12 10 8 7 7 8 9 8 8 9 9 6 3 2 3 3 2 2 1 2 2 4 5 5 3 3 5 4 2 3 2 8 10 11 12 12 14 14 15 18 21 25 28 29 27 26
13 12 11 11 11 11 12 10 10 11 11 14 16 15 17 17 16 16 14 12 11 10 8 7 6 7 8 7 7 8 7 7 7 8 8 9 10 9 10 11 11 12 12 13 16 18 18 18 17 17 16 14 12 9 8 8 7 7 7 6 8 10 6 1 0 0 1 1 2 2 1 2 5 4 4 2 2 6 5 4 3 3 6 9 10 12 13 14 15 15 18 21 24 28 29 28 26
15 12 10 12 12 10 11 11 10 10 11 14 14 14 16 18 17 14 13 12 11 9 8 8 8 8 9 9 9 10 10 10 9 10 10 10 11 10 10 11 12 13 13 12 14 16 17 18 18 17 17 15 12 9 7 6 6 6 6 7 8 9 7 3 1 2 2 2 3 3 3 3 5 3 2 2 3 5 5 4 4 3 5 8 8 10 13 15 15 16 17 20 24 27 29 29 27
13 11 12 12 10 10 8 9 11 9 9 13 14 14 14 15 16 14 12 12 12 10 9 9 10 10 10 11 12 12 12 12 12 12 12 12 12 11 11 12 13 13 14 14 14 14 14 15 16 17 16 15 12 8 6 6 5 4 4 7 9 8 7 5 2 3 3 4 5 4 5 5 3 3 2 3 3 4 5 5 5 4 4 6 7 9 12 15 16 16 17 19 23 26 28 29 28
12 11 12 11 8 11 11 10 12 10 9 12 14 15 14 13 15 13 11 11 12 10 10 12 12 13 13 13 13 13 13 13 14 13 13 13 13 13 12 13 14 15 15 15 15 13 12 12 13 15 16 15 12 9 6 6 6 5 4 6 9 8 7 6 3 4 4 4 5 7 8 6 6 5 4 4 4 6 7 4 3 4 3 4 7 7 9 14 16 17 18 19 23 26 28 29 29
12 12 10 9 9 12 14 13 12 12 10 11 13 15 15 15 15 12 9 10 12 9 10 12 13 15 15 15 15 14 15 15 15 14 14 14 14 14 14 14 14 15 17 17 17 14 13 11 11 12 14 15 13 11 8 7 7 7 6 8 9 10 9 8 5 4 6 6 6 8 9 8 8 8 6 5 6 7 7 3 3 5 4 3 4 6 7 12 15 17 19 20 23 25 28 30 30
12 12 7 7 9 9 12 12 11 11 10 11 13 13 14 15 14 13 11 10 9 9 12 13 14 17 16 16 15 15 16 16 16 15 15 15 15 16 15 15 15 15 17 18 18 16 14 12 11 12 13 14 14 13 11 9 8 8 8 9 10 12 13 12 10 6 7 8 8 8 9 9 8 8 6 6 8 7 7 6 5 4 5 6 5 4 7 11 14 17 19 21 23 25 28 29 30
12 13 11 9 8 6 10 12 11 11 11 11 12 11 13 15 14 14 12 8 9 12 15 16 16 18 16 16 16 17 18 17 16 15 15 15 16 16 16 17 16 16 16 17 17 16 15 14 13 12 13 14 14 14 14 12 11 10 10 11 12 13 13 14 13 10 8 7 7 8 9 9 9 9 8 8 9 9 8 9 6 4 5 6 5 5 8 12 14 16 18 20 23 25 27 29 30
9 10 14 13 10 8 10 11 10 11 11 11 11 12 14 13 12 14 13 12 16 18 17 16 17 18 17 17 18 18 18 17 16 15 15 16 16 17 17 17 16 16 16 17 17 17 17 15 14 14 14 14 15 15 15 15 14 12 12 13 14 14 14 15 15 14 10 7 7 8 8 9 10 10 9 9 9 9 10 10 8 7 8 6 6 4 7 11 13 15 18 20 22 24 27 28 30
9 6 12 13 12 11 11 11 11 12 12 13 13 14 14 12 11 14 14 17 19 19 17 16 17 19 19 19 18 18 17 16 16 15 15 16 16 17 17 16 16 16 16 16 17 17 17 16 15 15 15 15 16 16 17 18 17 15 13 14 15 15 16 16 17 17 15 11 9 9 9 9 10 10 10 9 9 9 11 13 13 12 10 7 7 5 6 10 12 15 17 19 21 24 26 28 30
9 6 10 12 12 12 12 11 12 12 13 14 14 14 14 14 13 13 15 18 18 18 18 18 19 20 19 18 16 16 16 16 16 15 15 15 16 16 15 15 15 15 15 15 15 15 16 16 15 15 15 16 16 17 17 18 20 19 17 15 15 17 18 18 19 19 18 15 13 12 12 11 10 11 10 10 11 9 10 13 14 14 11 8 8 7 8 11 12 14 16 17 20 23 25 27 29
10 8 9 10 10 10 10 11 12 12 13 13 13 14 16 16 14 14 18 19 17 18 18 19 19 19 18 16 15 15 16 16 15 14 14 15 14 14 14 13 14 15 14 13 13 14 13 14 14 14 14 15 16 17 17 19 21 22 21 18 17 18 19 19 20 20 20 19 17 16 16 14 12 13 12 11 12 11 12 13 13 13 12 10 9 8 9 11 11 13 15 17 19 22 25 27 29
10 10 11 10 10 10 10 10 12 11 12 13 12 14 16 16 13 12 18 18 17 18 18 18 17 16 15 14 14 14 15 14 13 13 13 13 11 11 11 12 14 15 14 13 13 13 13 12 12 12 13 14 15 16 17 18 20 23 24 23 21 19 20 20 19 20 21 22 21 19 19 18 16 15 15 14 14 13 14 14 13 13 13 12 11 10 10 10 9 11 14 17 19 20 23 26 28
10 10 10 11 11 11 12 12 12 11 12 13 12 13 15 14 11 12 17 17 16 16 16 16 14 14 14 13 13 12 12 12 11 12 12 11 9 9 10 12 14 15 16 15 15 15 14 13 12 11 12 13 14 15 16 17 19 22 24 25 25 23 21 19 19 21 22 23 24 23 22 21 20 18 17 16 16 16 16 15 15 15 15 16 15 14 12 10 9 10 12 15 17 18 21 24 26
11 10 9 10 11 12 13 14 14 12 12 14 12 12 14 13 13 16 18 15 15 15 14 14 13 13 13 12 12 11 11 11 11 12 12 11 9 8 9 11 13 14 16 17 17 17 15 15 13 11 11 12 13 14 15 15 17 20 23 26 27 27 24 22 21 22 23 23 24 24 24 24 23 21 20 20 19 19 19 17 16 16 17 18 18 16 15 13 11 10 11 12 14 16 19 22 24
10 10 9 9 10 12 15 15 14 14 14 15 11 10 12 13 15 17 16 15 15 14 13 13 13 13 13 12 11 11 12 11 11 12 12 11 8 8 9 11 12 12 14 16 17 17 16 15 14 13 11 11 12 13 14 15 16 17 20 24 26 28 29 27 26 25 25 25 24 23 24 25 23 22 23 23 23 22 21 19 19 19 20 21 20 19 16 15 14 12 11 11 12 14 16 20 23
8 10 10 10 10 11 15 15 13 13 15 14 11 11 9 12 15 16 16 16 15 13 12 12 12 13 13 12 12 11 11 11 11 12 12 10 8 8 9 11 12 11 12 14 15 15 14 13 13 13 13 12 13 13 14 15 16 17 18 21 25 28 30 31 31 30 29 28 27 25 25 24 23 24 26 26 26 25 23 22 22 22 23 22 22 20 18 17 16 15 14 13 13 13 15 17 20
9 10 10 11 11 9 10 14 12 12 13 13 13 11 9 11 13 16 16 16 14 12 11 12 12 14 14 14 14 12 10 11 11 12 12 11 8 9 10 11 12 11 11 12 13 12 12 11 11 13 14 14 14 14 15 15 17 17 17 19 21 25 28 31 33 34 34 33 31 30 29 28 26 26 29 29 29 29 27 25 24 24 24 24 23 22 19 18 18 18 18 16 14 14 15 16 18
10 11 8 9 11 8 7 11 12 13 13 13 14 10 7 9 13 15 16 15 13 11 10 12 12 13 15 16 16 15 13 12 12 13 13 12 10 10 10 11 12 11 10 11 11 11 10 9 9 11 13 13 14 15 16 16 17 18 18 19 19 22 24 28 31 34 37 37 36 35 34 33 32 30 30 30 30 31 30 29 27 28 28 27 26 24 22 20 19 19 19 18 16 15 16 17 19
10 11 9 8 9 8 6 6 11 13 12 12 15 14 9 8 12 15 17 16 14 12 11 12 12 13 15 16 18 18 16 15 14 14 15 14 13 12 11 12 12 11 10 10 10 10 10 9 8 9 11 12 13 14 16 16 17 17 18 19 20 21 22 24 27 30 34 37 39 40 39 38 37 35 34 33 32 32 32 33 31 31 32 30 29 28 26 23 21 20 20 19 18 17 18 19 21
9 9 9 8 8 10 8 6 9 11 12 13 14 17 14 10 12 15 18 18 16 15 14 13 14 15 15 17 19 20 19 18 17 16 16 16 15 13 12 12 12 11 10 10 10 10 10 10 9 10 11 12 13 13 14 15 16 17 18 19 20 21 22 24 25 27 30 33 36 39 41 41 40 39 38 36 35 34 33 33 34 35 35 33 31 30 29 27 24 21 21 20 19 20 20 22 22
6 6 6 7 7 9 8 8 12 11 11 14 14 17 17 15 14 15 18 20 19 19 18 18 19 18 18 19 20 20 20 18 17 18 19 18 17 15 13 12 12 11 11 10 9 8 9 9 11 11 12 13 13 14 14 15 15 16 18 19 20 21 22 24 25 27 29 30 32 35 38 40 42 42 41 40 39 38 35 34 36 38 39 38 35 33 31 30 27 25 23 22 21 23 24 25 25
5 5 6 7 8 9 7 9 15 14 12 14 15 16 17 17 16 15 16 19 22 23 23 24 23 21 20 20 20 20 18 17 17 20 20 19 18 15 13 13 12 11 11 10 9 8 8 9 10 12 13 13 14 15 15 16 16 16 17 19 21 22 23 23 24 27 29 30 31 31 33 36 40 42 43 43 42 41 39 37 37 38 41 42 39 36 33 33 30 27 26 25 25 25 26 27 26
5 6 6 8 9 8 8 11 15 16 15 13 13 16 18 19 19 18 17 19 23 24 23 23 22 21 22 22 21 19 17 16 18 20 21 20 18 15 13 13 12 12 11 10 9 8 8 9 10 11 12 13 14 15 16 17 17 18 18 19 20 22 24 24 24 25 27 29 31 31 32 32 35 39 43 44 44 44 43 41 39 37 39 41 40 38 36 36 33 30 30 29 28 28 29 29 29
6 7 7 8 7 6 9 11 13 15 14 12 10 13 18 19 19 20 21 21 23 23 23 23 21 20 22 20 18 17 15 16 17 19 20 19 17 14 14 13 13 12 10 9 8 8 8 8 9 9 9 10 12 14 16 17 17 18 20 20 20 22 24 25 26 25 26 27 30 32 33 32 33 35 39 43 45 46 45 44 43 41 39 38 39 40 39 38 35 34 35 30 29 31 32 31 32
7 7 7 7 5 6 7 5 7 10 11 11 11 14 18 19 19 21 22 24 25 26 27 26 23 21 19 16 15 15 15 15 16 16 16 15 14 14 14 13 12 11 9 8 8 7 7 7 7 6 7 7 8 10 13 15 16 18 19 20 20 20 22 24 25 26 26 26 28 30 32 34 33 33 35 38 42 45 46 46 46 44 42 39 38 40 42 39 37 38 38 32 31 33 34 34 35
8 8 9 7 5 6 6 2 3 7 8 9 10 15 18 15 14 15 17 21 26 27 26 23 20 17 15 14 15 14 13 14 15 14 14 13 13 13 13 13 12 10 8 7 7 6 7 6 5 5 6 7 8 9 9 10 12 15 16 18 19 19 19 21 24 25 26 26 26 28 30 33 34 34 35 36 38 41 44 46 46 46 46 43 41 40 41 40 39 40 39 36 36 34 32 36 39
8 8 8 7 6 6 5 3 4 6 7 6 5 10 8 7 8 9 9 11 15 18 18 17 15 13 13 13 13 13 13 14 16 16 15 14 13 14 14 13 12 10 8 6 6 6 7 6 5 5 6 7 9 10 10 9 9 11 12 14 15 16 17 18 20 23 25 25 25 26 28 30 33 34 36 36 37 38 40 43 45 47 47 48 47 44 43 42 41 41 39 39 41 37 32 36 42
8 7 7 6 7 6 5 5 5 6 5 4 6 7 5 5 7 9 9 7 8 11 12 13 14 14 14 13 13 14 14 15 17 17 17 15 16 17 15 13 12 10 8 6 5 6 6 6 6 7 8 8 10 11 12 12 11 10 11 12 12 13 15 17 18 20 23 25 25 25 26 28 30 32 35 36 37 39 39 41 43 45 47 48 50 50 48 47 45 44 42 41 43 42 39 40 42
7 7 6 6 7 7 6 5 7 7 6 8 9 7 9 12 8 8 9 9 9 10 11 11 13 14 15 15 15 16 17 18 19 19 18 17 17 17 15 13 12 10 8 6 5 5 6 7 7 8 9 10 12 14 15 15 15 14 13 13 13 13 14 16 17 18 19 22 24 25 25 26 28 30 32 34 37 38 40 41 42 44 45 47 49 51 51 51 50 49 47 44 43 43 42 41 39
8 8 7 6 7 7 6 6 7 6 7 10 8 7 8 10 7 7 8 10 11 11 12 12 13 14 14 15 16 17 19 20 21 21 20 18 18 18 16 13 12 10 9 7 6 6 6 8 9 10 12 13 14 16 17 18 18 18 17 16 16 16 15 16 17 18 18 19 21 23 25 25 27 29 31 33 35 37 39 40 42 43 44 45 47 49 49 49 50 50 49 47 46 45 43 42 41
11 10 8 7 7 7 7 7 8 6 8 11 8 8 7 7 6 7 8 9 11 12 13 13 13 14 14 15 16 16 18 20 22 22 20 19 18 18 16 14 11 10 10 8 7 7 8 9 11 12 14 16 17 18 20 21 22 21 20 20 19 18 18 18 18 19 20 19 20 21 24 25 26 28 30 32 35 36 38 39 41 42 43 45 46 47 48 48 48 48 48 47 47 47 46 47 47
13 10 7 8 8 8 8 9 8 7 9 10 8 9 7 7 6 7 8 8 9 10 12 13 13 14 14 15 16 16 17 19 20 21 21 20 19 18 17 14 12 11 11 10 9 9 10 11 13 15 16 18 20 21 22 23 24 24 23 23 22 21 21 20 19 19 20 21 21 21 23 25 26 28 29 31 33 35 37 38 40 41 41 43 44 45 46 47 47 46 46 47 46 47 48 50 50
13 10 9 9 9 9 9 10 9 8 7 6 8 8 8 8 6 4 5 7 7 8 11 12 12 13 14 16 17 17 18 18 19 20 22 22 20 19 18 15 13 12 12 11 11 11 12 13 15 17 19 21 22 23 24 25 26 26 25 25 24 23 23 22 21 20 20 21 22 22 23 24 26 28 29 30 32 34 36 37 39 40 40 41 42 44 45 46 47 46 46 47 46 47 48 49 51
14 12 12 11 9 9 9 8 8 8 6 6 9 8 8 12 13 9 8 9 9 9 11 12 13 13 14 16 17 18 19 19 20 21 22 22 22 20 19 17 15 15 14 13 14 14 15 16 18 20 22 23 24 25 26 27 28 27 27 26 25 24 24 23 23 22 20 20 21 22 23 25 26 28 29 30 31 33 35 36 37 39 40 40 41 42 43 44 45 46 47 46 46 47 47 47 49
17 16 15 13 9 7 7 7 8 10 6 6 8 7 7 11 14 13 11 11 11 12 12 13 14 14 15 15 17 19 20 21 21 21 22 23 22 21 19 18 18 17 16 16 16 17 18 20 21 22 24 25 26 27 28 28 29 29 28 27 26 25 24 24 24 24 23 21 20 21 23 25 27 28 29 31 32 32 33 35 37 38 39 40 40 41 41 42 44 45 46 46 46 47 46 45 45
17 17 15 16 14 11 8 7 8 8 3 8 9 7 7 8 7 8 9 10 12 13 14 14 13 13 13 14 18 21 21 21 21 21 22 23 22 22 20 19 18 17 17 17 18 20 21 22 23 24 26 27 27 28 29 29 30 30 29 28 27 26 25 25 25 26 26 24 23 22 23 24 27 28 30 31 32 34 34 35 36 38 39 40 40 40 40 41 42 44 44 45 45 47 47 46 43
14 16 17 20 20 16 14 11 11 11 5 6 9 9 11 12 10 13 15 13 13 14 14 14 12 11 11 12 15 19 20 20 21 22 23 23 23 23 21 19 18 18 19 20 21 22 23 23 23 25 27 28 28 29 29 29 30 30 29 28 28 27 27 27 27 27 27 28 27 26 25 25 26 29 30 32 33 34 35 36 37 38 39 40 41 41 40 40 40 42 43 44 44 46 47 47 43
10 14 19 20 19 18 17 14 12 13 11 10 13 14 15 16 16 18 19 15 13 14 14 15 13 11 11 11 12 16 18 19 20 21 22 23 23 22 20 18 18 19 20 22 23 23 22 22 23 25 27 28 28 28 28 29 29 29 29 28 28 27 28 29 29 28 28 29 29 30 29 28 28 29 30 32 33 34 35 36 37 38 38 40 41 42 42 41 40 41 41 42 43 44 46 47 47
12 15 16 15 17 18 17 13 9 10 10 12 16 17 16 15 12 11 15 16 15 14 15 15 14 13 11 11 11 14 17 18 19 20 20 20 20 20 20 18 19 20 21 23 23 22 22 22 24 26 27 27 27 27 27 27 28 28 28 28 28 28 28 29 30 30 30 30 31 32 32 32 32 31 31 32 33 35 36 36 37 38 38 39 40 41 42 42 41 41 41 41 41 42 45 47 48
17 19 16 14 16 17 17 14 10 10 9 9 14 17 17 19 16 11 13 16 16 16 17 17 15 14 12 12 12 14 17 18 19 20 20 20 20 20 20 20 19 19 22 23 23 23 22 23 24 25 26 27 26 26 26 26 27 27 28 28 28 28 29 30 31 32 32 32 33 33 34 35 35 35 34 34 33 34 35 36 37 38 38 39 40 41 42 43 43 43 42 41 40 41 42 45 46
15 18 19 19 20 20 21 19 16 15 11 10 14 15 16 20 20 17 15 15 15 16 18 18 16 15 14 14 14 16 18 19 19 20 20 20 20 19 21 21 19 19 23 24 24 23 23 23 23 24 26 26 27 27 27 27 27 27 28 28 29 29 30 31 32 33 34 34 35 36 36 37 37 37 37 36 36 35 35 36 37 38 39 40 40 41 42 43 44 45 44 42 41 41 41 42 43
13 15 18 20 22 22 23 23 25 22 14 10 11 12 18 21 17 17 16 15 16 17 18 18 16 15 16 15 16 17 18 19 20 20 19 20 19 20 22 21 18 20 23 23 24 23 23 24 24 25 26 26 27 27 28 28 27 28 29 30 30 31 31 32 33 33 34 36 37 39 39 39 39 39 39 38 38 37 36 36 37 39 40 40 41 42 43 44 45 46 46 45 43 42 42 41 42
15 17 19 20 22 23 19 18 26 29 22 17 14 13 21 22 14 14 15 14 16 18 18 19 16 15 17 17 18 19 19 20 20 20 20 19 19 22 24 20 17 21 23 23 24 24 25 26 26 26 27 27 28 28 29 29 29 30 31 31 31 31 32 33 33 34 35 37 39 41 42 42 41 40 39 39 38 38 37 36 36 38 40 41 42 43 44 45 46 47 47 47 45 44 43 42 42
Wind_Direction
227 226 225 225 227 223 228 205 198 218 215 238 226 214 200 196 190 178 177 162 152 150 147 142 146 140 135 149 152 163 171 171 177 187 204 220 245 247 243 246 244 233 220 218 229 222 204 218 220 275 273 281 287 283 299 314 338 8 74 94 120 135 134 166 295 285 265 346 3 38 67 135 151 151 148 144 138 133 140 129 111 122 139 142 141 143 150 156 153 144 142 139 139 149 152 149 146
227 225 223 223 223 216 221 195 196 223 216 237 218 199 191 188 180 166 172 173 174 161 144 129 128 131 135 147 148 156 175 179 187 201 212 231 250 252 247 250 246 234 232 225 230 220 190 224 219 233 256 271 285 281 288 304 340 8 80 98 112 142 141 148 210 249 224 7 22 33 37 56 177 163 160 156 150 145 148 130 120 134 139 140 141 147 154 156 154 145 145 144 145 154 157 153 149
224 222 220 218 218 212 210 197 214 229 221 233 202 191 191 171 164 170 181 183 179 165 150 137 128 130 136 155 170 174 190 204 221 222 223 237 248 250 245 245 246 235 238 232 229 219 203 226 222 223 242 255 261 264 275 291 307 4 79 105 112 147 148 152 184 218 232 35 47 39 41 22 284 175 158 144 146 148 145 128 121 139 142 140 139 146 156 157 157 152 150 149 150 158 160 156 151
221 219 216 211 210 208 203 205 225 235 231 234 192 184 181 163 171 181 185 184 175 163 155 145 136 136 144 169 184 195 222 232 237 232 232 239 244 245 241 239 246 244 245 237 223 215 216 234 229 221 234 243 242 246 259 273 277 311 68 131 136 142 146 158 168 201 232 30 55 51 55 39 322 261 173 138 143 141 129 121 114 129 144 145 142 147 157 161 162 159 155 152 152 159 162 158 152
219 217 216 206 199 200 200 216 228 230 233 231 192 178 172 169 181 180 180 179 170 165 159 149 147 154 159 176 190 216 237 242 239 234 236 240 244 243 239 238 240 245 249 243 228 227 232 243 238 226 232 239 239 239 246 264 266 271 15 147 159 143 141 160 164 192 217 134 66 63 58 26 348 289 214 163 157 139 117 118 118 132 146 145 145 152 161 168 167 163 159 154 153 159 163 159 153
217 216 218 206 202 204 202 218 221 221 227 217 180 175 174 177 181 178 179 179 175 170 161 153 158 169 174 187 204 228 233 240 241 234 238 241 246 243 242 245 244 246 248 246 238 241 239 242 245 239 241 241 240 245 252 282 286 344 23 43 130 144 142 156 303 358 135 137 72 71 55 24 19 307 296 254 175 141 113 119 131 141 144 145 148 157 164 171 171 166 161 156 155 159 161 159 154
213 212 216 209 213 208 205 226 220 215 223 215 184 164 177 183 181 177 179 181 184 175 152 152 151 151 185 200 207 225 222 224 229 230 238 238 241 237 237 251 256 253 245 244 241 246 246 248 252 245 242 235 229 238 242 281 318 11 27 25 34 68 98 39 338 326 355 5 10 72 66 31 25 298 308 310 226 154 108 125 135 144 146 147 151 158 165 172 173 167 163 159 158 158 159 159 155
205 205 202 192 212 212 212 228 219 209 222 217 198 175 179 185 181 172 175 177 183 176 148 166 153 148 204 204 203 225 215 206 207 218 232 237 239 230 227 245 251 248 237 237 236 243 249 248 250 248 242 231 225 225 214 225 300 354 14 9 347 334 331 326 335 316 300 309 323 15 77 36 360 308 299 303 283 276 266 149 134 144 151 152 154 160 167 172 172 169 165 161 159 158 157 158 155
200 201 194 185 207 216 217 222 216 207 208 209 199 188 181 177 175 170 178 181 181 177 161 173 150 157 212 199 195 214 202 201 198 206 224 235 240 233 227 232 239 239 233 234 232 237 240 237 243 245 241 237 237 237 227 217 240 311 343 346 332 324 316 301 325 321 300 294 301 301 21 26 352 329 296 293 289 285 280 225 149 150 159 158 156 162 170 172 173 171 166 162 161 159 157 158 156
198 196 190 200 213 215 217 213 210 202 196 201 194 186 177 171 171 169 176 185 185 181 175 170 142 157 191 173 181 197 193 199 194 205 220 228 236 238 238 239 242 245 237 237 234 230 228 228 243 247 235 221 218 233 231 228 246 282 318 330 334 327 310 299 306 313 305 298 302 291 302 344 349 321 292 284 280 277 276 259 176 157 164 166 161 165 173 173 174 170 165 164 162 159 158 159 157
198 206 194 207 218 214 216 208 200 195 196 200 194 185 175 171 173 176 177 184 189 185 178 158 134 142 146 149 156 166 185 183 190 210 223 226 233 239 242 245 245 246 238 233 233 228 223 220 242 267 244 220 218 230 237 240 258 273 284 311 321 316 300 299 303 299 296 296 320 288 269 298 331 332 304 285 275 270 267 264 210 168 168 171 167 170 174 175 174 169 166 165 164 160 160 161 159
192 216 203 210 221 217 217 206 193 191 194 194 199 193 180 177 177 182 183 186 190 186 180 157 142 133 123 132 132 108 86 83 213 228 235 234 237 241 243 245 242 244 237 227 228 228 229 226 238 279 271 233 240 243 241 237 248 280 281 288 288 288 288 297 299 294 291 290 317 302 263 278 319 349 322 288 275 270 262 256 214 176 171 173 172 174 175 177 175 170 168 167 166 163 163 165 162
193 210 207 218 224 217 218 205 191 190 190 192 204 201 189 183 177 180 185 190 189 187 190 173 155 140 135 142 142 113 57 40 306 264 254 248 243 247 247 248 243 241 234 226 231 231 228 232 242 264 270 268 282 251 212 223 255 284 282 267 265 262 263 282 283 291 299 292 298 306 266 262 313 360 325 288 254 233 252 253 208 182 174 173 174 178 176 180 179 172 170 168 167 166 167 169 166
201 210 208 224 228 219 219 208 202 197 196 205 208 206 202 192 182 179 179 191 198 196 194 187 166 141 154 180 203 238 355 350 321 292 272 261 251 251 251 250 247 242 236 229 232 232 227 230 239 252 259 265 283 278 260 265 275 278 272 258 256 244 237 270 278 291 303 299 289 285 265 260 4 9 331 293 236 191 176 68 143 183 179 173 174 181 181 184 183 175 173 171 168 169 171 172 170
204 213 209 228 232 221 219 212 214 203 203 218 211 207 209 201 193 186 177 190 205 208 202 203 188 153 171 196 233 255 276 294 299 297 290 279 264 258 256 254 252 244 237 232 229 229 230 234 240 245 252 259 270 283 285 287 284 279 271 255 248 234 225 265 285 297 302 293 262 223 267 295 46 16 337 313 224 186 182 118 78 153 177 175 177 185 186 186 186 179 176 174 171 171 173 175 174
206 209 213 229 226 217 216 210 214 207 210 224 212 203 205 201 200 197 196 203 210 214 212 221 210 188 198 209 237 258 271 278 283 290 293 291 280 269 263 259 258 250 238 228 224 226 230 234 241 245 246 250 258 269 277 282 281 279 274 252 239 228 212 203 258 232 279 239 199 165 153 60 68 40 358 12 193 195 195 167 112 113 161 172 178 186 189 187 186 183 180 176 174 174 176 177 177
208 204 213 225 221 217 214 204 207 203 207 221 211 198 198 201 204 205 212 217 219 222 223 232 229 221 229 236 250 265 272 277 281 285 289 291 287 276 267 261 257 253 244 232 224 226 231 234 240 245 246 246 250 257 261 266 269 273 267 244 229 216 197 192 187 144 140 142 167 154 121 97 82 87 77 95 187 207 205 195 165 123 142 164 175 184 188 187 184 183 183 180 177 177 178 178 179
203 204 215 220 218 213 200 191 203 198 198 214 207 193 193 206 211 211 216 221 224 231 237 238 240 239 245 252 260 269 273 279 281 284 287 286 284 276 267 259 252 249 246 241 234 231 232 235 238 241 244 244 243 245 245 242 243 256 251 230 217 203 192 199 187 152 142 124 156 148 119 128 121 119 147 149 164 208 217 210 176 151 146 154 164 182 189 187 184 183 183 184 182 180 181 181 181
196 203 218 218 209 211 204 193 201 193 192 209 208 195 189 205 215 214 216 225 229 236 246 243 244 248 252 259 264 269 272 279 283 285 286 282 278 272 264 256 250 246 243 241 238 236 237 237 240 240 239 239 236 232 232 229 227 231 219 209 209 206 205 209 191 155 150 135 161 153 135 161 175 149 170 178 166 206 217 210 190 190 177 141 145 163 189 190 186 185 185 187 186 183 183 184 184
201 203 215 220 207 217 217 205 202 195 196 206 208 201 198 210 216 213 207 221 233 231 242 244 247 252 256 262 263 268 275 281 284 284 282 277 272 267 263 256 250 246 242 241 238 237 241 242 245 245 240 235 230 224 219 219 221 220 211 208 218 226 228 227 219 175 169 167 164 160 152 166 179 162 175 184 171 203 214 200 224 221 198 188 159 150 181 194 191 189 188 189 189 187 185 187 187
205 203 206 222 204 214 219 210 211 205 198 199 207 209 212 220 219 219 209 219 241 229 234 242 248 255 257 261 265 269 277 281 281 279 274 270 266 262 260 256 251 248 245 244 241 238 242 246 249 251 247 237 228 220 214 216 219 217 216 212 221 232 234 234 231 206 187 179 164 171 172 171 175 171 188 189 172 193 205 193 209 222 202 212 219 180 175 190 195 193 191 190 191 191 188 189 190
201 207 205 210 191 199 221 214 215 214 206 203 206 205 216 223 222 224 214 216 230 217 231 244 249 256 256 260 267 272 276 277 274 270 265 261 259 258 257 256 253 251 249 248 247 245 247 249 250 252 252 245 235 223 214 216 221 220 221 217 220 228 230 232 236 228 209 191 178 187 186 181 181 179 198 199 180 185 192 191 197 220 215 214 225 209 182 184 193 195 193 192 192 193 191 191 192
193 215 214 211 198 200 220 219 217 216 208 201 201 208 222 228 229 230 218 219 224 222 238 248 249 255 258 262 266 269 270 267 264 260 255 252 252 254 256 257 255 254 252 251 252 252 254 254 252 252 251 247 241 231 219 216 220 220 223 226 226 228 226 227 236 240 231 210 204 208 197 194 192 187 201 207 194 189 193 197 199 211 214 215 229 224 191 184 188 195 195 194 195 195 195 194 194
183 215 221 215 213 215 222 224 221 219 211 208 212 219 227 225 230 236 230 231 235 237 247 250 252 258 259 262 262 262 261 257 254 250 247 247 249 253 255 257 259 260 259 257 255 256 259 260 256 253 250 246 241 236 225 219 219 215 216 227 231 229 228 228 233 241 240 228 223 227 217 207 204 198 200 208 205 196 202 203 200 207 207 211 228 221 200 192 188 193 195 196 199 198 198 198 198
197 215 224 217 222 226 227 227 225 223 220 220 222 225 227 224 228 236 238 239 242 246 249 251 254 257 257 258 256 254 252 248 245 242 243 246 248 252 254 258 260 261 263 264 263 260 260 261 260 256 251 245 239 235 229 223 222 218 212 218 226 228 231 236 238 239 239 236 233 233 227 215 210 209 202 208 212 204 209 209 205 210 208 210 220 210 206 204 196 193 194 198 202 202 202 201 201
211 206 214 215 220 221 221 224 225 225 225 226 227 233 234 233 233 238 243 241 243 245 245 248 249 252 255 254 251 247 243 241 240 240 242 245 247 251 255 259 260 260 262 266 269 266 263 263 262 259 252 246 240 235 230 225 224 224 218 215 220 226 230 237 240 242 243 242 241 237 230 221 214 215 210 211 218 217 218 215 211 214 216 219 215 209 210 208 202 195 195 199 203 205 205 205 205
215 206 211 214 214 216 217 221 225 229 234 232 233 242 242 240 235 239 247 241 239 241 239 243 246 249 251 249 246 241 239 238 236 237 237 237 241 250 256 260 263 265 266 269 274 273 269 266 264 262 256 249 245 239 234 228 225 227 225 219 220 224 227 230 232 238 245 248 248 241 233 228 220 220 219 215 217 221 221 215 212 214 219 225 218 215 215 208 206 200 197 201 203 206 208 209 209
216 212 214 221 223 225 225 227 233 236 242 241 239 247 248 243 225 223 240 237 231 234 234 238 239 241 244 241 240 235 234 233 229 230 228 227 232 242 251 258 263 269 274 275 279 281 279 276 273 269 261 254 248 243 238 232 226 227 229 225 222 223 225 227 227 231 236 242 246 244 237 233 229 227 226 223 221 220 220 216 215 216 216 224 224 221 220 215 211 205 203 204 205 207 209 211 212
224 215 205 223 229 231 235 236 240 237 242 248 245 246 244 232 214 219 232 229 224 225 226 231 231 233 237 235 233 229 228 226 223 225 225 225 227 236 245 257 265 272 280 281 282 285 286 284 281 275 268 260 252 246 242 236 228 224 228 230 227 225 225 225 228 230 233 236 241 242 239 235 234 234 231 230 229 225 223 218 219 223 220 223 226 222 223 223 217 211 210 210 209 210 210 211 213
224 217 207 222 227 230 239 243 244 239 243 248 240 241 234 210 210 223 225 219 217 218 220 226 229 230 233 232 228 225 225 223 223 227 229 227 227 236 245 258 268 276 282 283 283 283 284 284 281 276 271 266 259 252 246 241 236 227 224 229 231 230 227 226 228 231 234 237 240 242 240 237 235 238 236 232 232 230 227 222 221 226 226 225 225 225 225 225 223 221 219 218 217 217 215 213 213
208 218 219 225 228 225 235 246 243 235 245 242 223 238 233 194 209 223 217 214 212 210 217 221 228 232 232 232 227 225 227 225 228 233 234 233 234 244 253 264 273 278 280 281 281 282 281 279 275 273 269 265 262 258 251 245 241 236 228 226 229 232 232 231 232 233 235 236 238 240 241 240 235 237 239 235 233 233 232 227 223 226 231 229 226 226 228 227 226 227 228 226 225 227 224 220 216
202 219 222 218 226 223 235 252 238 220 237 230 210 235 240 194 208 223 215 215 211 205 216 219 227 234 234 235 232 230 235 235 238 242 242 243 249 256 262 270 275 280 278 274 275 277 278 274 266 265 264 261 259 257 254 248 244 242 238 231 229 232 234 235 235 237 238 238 238 238 239 241 237 234 238 237 235 235 234 232 230 231 235 236 232 229 228 228 228 229 231 229 230 237 234 226 222
208 221 230 214 221 223 229 249 235 218 228 223 210 223 237 201 209 226 222 221 218 206 213 224 230 237 238 239 236 233 238 244 246 248 248 249 256 261 264 269 275 280 275 267 267 266 267 266 261 259 260 259 258 257 255 251 247 245 244 241 236 234 235 237 238 239 240 242 242 242 240 240 239 237 239 241 238 238 237 234 232 233 235 236 236 234 230 229 229 229 232 232 230 237 242 235 226
209 218 233 223 222 229 227 240 235 226 221 218 218 222 233 214 212 230 232 227 225 214 215 228 238 246 246 244 240 237 237 242 245 248 250 251 253 257 260 264 271 275 267 258 258 257 255 253 252 253 257 260 261 260 259 256 252 250 248 247 244 242 240 240 241 241 242 243 243 244 244 243 241 239 239 242 241 240 240 238 235 234 236 237 237 237 234 233 232 229 231 234 232 231 239 241 231
214 213 227 230 224 229 234 231 223 220 217 216 221 224 231 228 217 230 236 230 229 228 228 234 239 247 250 247 243 240 239 242 246 245 244 246 249 251 256 259 264 267 259 252 251 253 253 248 246 248 252 258 261 262 262 261 260 258 257 255 252 249 246 245 244 244 245 245 245 245 245 245 244 242 240 240 241 241 242 243 241 238 240 240 239 238 236 235 238 236 234 234 235 231 234 243 240
208 209 228 234 230 233 233 233 230 222 218 222 226 228 232 234 227 228 235 235 235 237 240 243 245 250 254 252 247 244 243 244 246 243 237 239 246 248 251 255 255 256 254 250 248 249 252 250 247 246 247 251 255 258 262 264 265 264 264 263 261 257 252 248 246 246 247 248 248 247 246 245 244 244 243 241 241 242 243 244 243 242 242 241 239 239 237 237 241 244 243 240 238 234 234 241 244
205 222 238 237 245 249 230 235 246 238 231 233 233 234 235 235 233 230 233 238 241 245 248 250 254 258 259 257 254 250 247 245 243 239 233 232 240 244 246 249 245 245 248 248 244 244 249 249 247 246 247 249 251 254 257 260 265 268 268 268 268 267 262 256 250 247 247 249 250 250 249 247 245 244 244 244 243 243 243 243 244 244 243 243 241 240 239 238 239 243 246 245 243 237 235 239 243
216 230 246 247 244 246 237 247 256 247 241 242 235 238 243 241 240 237 234 240 249 252 252 253 256 259 260 258 255 250 243 242 238 233 228 227 234 238 239 240 236 236 244 245 240 241 247 247 245 245 248 252 255 258 258 258 260 264 266 267 268 270 270 267 261 253 249 248 250 251 250 249 247 245 244 245 245 245 244 244 245 245 244 245 244 242 241 238 238 242 245 246 247 243 237 236 241
223 236 249 252 235 232 249 256 258 246 237 239 240 249 252 247 245 243 240 244 251 252 248 248 250 253 259 257 248 238 230 235 236 229 227 228 231 231 230 230 229 233 239 238 235 237 245 247 246 247 251 255 257 260 261 261 260 260 261 263 265 268 270 270 269 265 258 251 248 249 250 249 247 246 245 244 245 246 247 247 248 247 246 246 244 241 240 238 238 242 244 243 245 247 242 235 238
229 240 249 250 231 238 250 239 243 243 236 239 252 267 265 255 250 249 246 245 246 247 248 249 250 252 253 243 228 220 220 228 231 227 225 225 225 224 224 225 227 231 231 229 232 236 240 241 244 255 265 268 266 263 261 262 262 260 259 260 262 266 270 271 270 269 266 261 253 249 249 249 248 247 245 245 244 245 247 249 251 251 249 248 245 241 241 240 238 243 247 244 243 248 248 239 237
232 239 251 252 236 243 248 211 240 258 252 249 265 276 267 251 246 247 244 247 246 246 249 249 249 247 235 221 214 212 218 225 224 219 217 219 222 223 223 224 225 222 218 221 228 229 229 232 246 267 279 284 287 282 273 266 262 262 262 260 261 265 270 274 274 272 270 267 262 255 250 248 248 248 247 246 245 245 245 248 250 251 252 250 248 244 244 245 242 244 248 249 248 250 250 245 240
247 240 241 238 226 225 230 228 250 255 239 230 275 283 254 207 225 231 232 250 246 239 241 239 238 234 220 212 209 208 214 222 223 221 220 220 222 223 223 224 220 210 207 213 220 222 227 238 257 276 285 292 297 296 291 285 275 270 270 267 267 270 273 276 278 277 274 271 267 263 257 252 249 247 247 246 246 245 245 246 247 248 250 250 250 247 246 248 247 246 246 248 252 251 250 251 245
257 237 228 220 213 212 213 220 243 259 249 237 270 279 262 257 249 222 219 236 224 221 228 225 225 225 219 214 211 211 214 219 222 224 226 226 226 226 226 224 216 209 208 211 220 231 240 254 269 281 290 297 302 302 301 300 295 289 284 280 278 279 281 280 280 280 277 275 272 268 264 259 255 252 249 247 247 246 245 245 245 246 247 248 249 249 248 249 251 252 249 248 252 252 251 253 248
243 236 237 211 197 208 215 225 245 271 295 278 259 249 267 277 260 217 223 227 216 221 226 221 220 221 219 216 215 215 216 219 222 225 227 229 230 230 229 226 221 217 218 222 234 252 261 269 277 284 292 299 303 304 306 307 306 303 299 294 289 288 291 289 284 281 278 276 273 271 267 264 262 260 257 254 251 249 247 246 245 245 246 246 248 249 248 248 250 252 253 252 253 254 254 250 244
242 249 243 207 198 215 221 239 255 267 291 274 229 205 256 269 240 218 222 221 222 225 224 221 216 214 215 216 216 218 220 224 227 227 227 229 231 232 231 231 229 226 225 231 246 264 275 281 285 288 292 298 302 303 306 307 308 308 306 303 298 294 295 296 291 285 281 276 271 268 266 265 265 264 263 262 259 256 253 250 248 246 245 245 246 248 249 249 249 249 251 253 254 256 256 248 239
241 248 236 216 217 225 225 245 259 255 272 270 220 197 252 274 238 219 209 218 234 233 228 222 214 214 217 218 219 220 223 227 228 226 228 232 234 235 238 239 236 233 232 237 252 267 278 284 288 291 293 297 300 301 303 304 306 308 307 306 303 298 296 298 297 292 287 281 274 268 263 262 263 264 264 265 265 263 261 257 254 250 248 247 246 246 247 248 249 249 249 250 251 252 255 252 244
231 234 223 221 225 229 235 245 254 256 259 254 215 199 240 275 258 232 217 225 237 232 224 215 214 220 223 224 224 222 223 226 227 227 230 236 238 239 244 246 241 238 238 244 258 269 275 282 287 290 293 295 297 298 299 301 303 304 306 307 305 302 298 298 298 296 291 286 280 273 266 261 260 261 263 264 266 266 265 263 261 257 253 250 248 247 246 246 247 248 248 248 249 248 251 252 250
224 222 216 225 226 224 238 236 230 250 252 215 189 194 221 245 253 239 221 229 235 224 214 212 220 230 233 234 231 226 225 226 226 229 234 236 237 240 246 247 244 243 246 255 266 271 275 281 287 289 291 292 293 293 295 297 299 301 302 304 303 302 300 299 299 298 294 289 284 278 272 266 261 259 259 261 264 265 266 266 264 263 259 254 251 249 248 247 246 247 248 249 249 249 249 250 249
221 219 220 231 234 228 241 236 220 243 245 171 171 192 218 240 254 263 253 245 238 221 215 221 229 235 238 239 238 233 228 226 226 230 236 236 235 240 245 246 246 249 255 263 268 272 277 281 286 286 287 287 287 288 290 292 295 296 298 300 299 298 299 300 301 300 298 293 287 282 276 270 265 261 259 258 260 262 264 266 265 264 263 260 256 252 249 249 248 247 247 248 249 250 249 249 249
217 217 219 227 244 252 247 241 240 251 237 167 175 200 231 252 256 252 245 242 236 228 230 236 236 236 235 233 235 234 229 228 230 231 235 237 237 241 245 246 248 252 259 267 270 274 278 281 284 283 281 282 282 283 285 288 290 293 295 296 295 294 295 298 300 302 301 299 293 286 279 272 267 262 261 259 258 258 259 262 264 265 264 262 259 256 252 250 249 248 247 247 247 249 249 249 248
225 225 231 235 246 260 257 257 268 267 211 156 171 194 226 243 232 221 234 243 238 233 234 239 243 243 239 234 233 235 232 229 231 230 231 236 239 243 247 249 252 258 265 270 272 275 277 279 281 279 277 277 277 279 281 283 286 289 292 293 292 291 291 294 298 300 301 302 299 294 286 277 270 264 261 259 258 258 257 257 260 262 264 264 262 260 256 252 250 248 248 247 246 247 248 248 247
237 228 234 239 242 251 262 276 284 286 284 183 190 215 235 242 245 247 259 264 249 239 237 239 244 246 247 247 240 236 234 229 228 228 230 235 240 245 250 253 258 265 270 271 272 274 276 277 277 274 273 273 274 275 277 280 283 286 289 290 289 288 289 292 295 297 300 302 302 299 295 287 278 270 264 260 258 258 257 256 256 257 259 262 263 262 260 256 253 250 248 247 246 246 247 248 245
241 229 236 241 243 249 260 269 264 263 274 250 227 231 239 250 260 255 253 255 247 240 239 238 240 243 248 250 241 232 229 226 226 226 228 234 239 245 253 259 265 269 270 270 273 274 274 274 274 272 271 271 272 273 275 277 281 284 286 286 286 286 288 291 293 296 298 301 302 301 298 294 287 279 271 265 261 259 258 257 256 255 255 257 260 261 261 259 256 254 250 247 245 245 246 247 246
242 242 249 249 245 247 251 260 257 241 255 256 232 223 231 247 257 242 228 232 238 236 234 235 237 241 244 243 237 228 222 222 223 224 227 230 233 241 251 261 268 269 269 270 272 273 271 270 271 271 270 271 271 272 274 276 279 282 283 283 284 284 286 290 292 295 298 300 301 301 299 297 293 288 281 273 266 262 260 258 257 255 254 253 255 257 260 261 259 257 254 250 246 244 244 246 246
250 251 254 253 252 251 243 243 255 251 254 257 232 223 234 245 245 236 226 229 234 228 224 225 229 234 237 234 229 222 218 219 221 224 228 230 232 237 246 257 262 263 265 269 271 271 270 270 271 271 270 270 270 271 273 275 277 279 281 282 283 284 286 289 292 296 299 300 301 300 299 297 294 291 287 281 274 267 262 260 258 257 254 253 252 253 255 258 259 258 256 253 249 245 243 244 245
262 258 253 251 254 258 253 247 251 255 258 260 250 242 245 247 245 245 246 240 234 226 219 218 221 228 229 225 220 218 219 221 222 227 230 232 235 236 242 251 258 260 263 267 269 270 271 273 274 273 272 269 268 269 270 273 275 277 280 281 283 284 286 289 293 296 299 300 301 300 299 297 294 292 289 285 281 275 267 261 259 258 256 254 252 251 252 254 256 257 257 254 251 248 246 244 244
257 255 253 253 252 256 260 257 254 257 264 265 263 259 256 257 252 243 245 245 236 228 220 217 219 224 223 220 219 219 222 224 227 230 231 233 237 238 241 250 259 262 263 266 267 268 271 275 276 275 272 268 266 267 268 271 274 276 278 280 282 283 286 289 292 295 297 299 300 300 299 297 295 292 290 288 284 280 274 267 260 257 256 254 252 251 251 251 253 255 256 256 254 251 249 247 245
261 261 259 258 259 260 263 261 254 254 257 261 267 268 262 264 260 241 241 245 240 233 226 223 223 225 224 222 223 223 223 226 230 232 232 233 236 238 245 253 257 259 263 266 266 268 272 274 276 276 272 268 266 267 268 271 274 277 279 280 281 283 286 289 292 295 296 297 297 298 298 298 296 294 291 289 286 283 279 273 265 258 255 253 252 251 250 250 251 252 253 255 255 252 250 248 248